Weather History for Savannah, GA

Change the Weather History Date:

Saturday, October 6, 2012

  Actual Average Record
Temperature  
Mean Temperature 77 °F 71 °F  
Max Temperature 86 °F 81 °F 94 °F (1951)
Min Temperature 68 °F 61 °F 44 °F (1985)
Degree Days  
Heating Degree Days 0 1  
Month to date heating degree days 0 4  
Since 1 July heating degree days 0 6  
Cooling Degree Days 12 7  
Month to date cooling degree days 76 45  
Year to date cooling degree days 2573 2311  
Growing Degree Days 27 (Base 50)    
Moisture  
Dew Point 69 °F    
Average Humidity 76    
Maximum Humidity 97    
Minimum Humidity 55    
Precipitation  
Precipitation 0.01 in 0.14 in 3.69 in (1914)
Month to date precipitation 0.67 0.93  
Year to date precipitation 37.34 39.88  
Snow  
Snow 0.00 in 0.00 in 0.00 in (2002)
Month to date snowfall 0.0  
Since 1 July snowfall 0.0 0.0  
Snow Depth 0.00 in    
Sea Level Pressure  
Sea Level Pressure 29.97 in    
Wind  
Wind Speed 3 mph (West)    
Max Wind Speed 16 mph    
Max Gust Speed 21 mph    
Visibility 9 miles    
Events Thunderstorm    
T = Trace of Precipitation, MM = Missing Value Source: NWS Daily Summary

Daily Weather History Graph

Daily Weather History Graph

Search for Another Location

Airport:

Trip Planner

Search our weather history database for the weather conditions in past years. The results will help you decide how hot, cold, wet, or windy it might be!

Date:

Astronomy

Oct. 06, 2012 Rise Set
Actual Time 7:22 AM EDT 7:02 PM EDT
Civil Twilight 6:57 AM EDT 7:27 PM EDT
Nautical Twilight 6:29 AM EDT 7:55 PM EDT
Astronomical Twilight 6:01 AM EDT 8:23 PM EDT
Moon 11:32 PM EDT (10/6) 1:00 PM EDT (10/6)
Length of Visible Light 12h 29m
Length of Day
11h 40m
Waning Gibbous, 65% of the Moon is Illuminated
Oct 6
Waning Gibbous
Oct 8
Last Quarter
Oct 15
New
Oct 21
First Quarter
Oct 29
Full

Hourly Weather History & Observations

Time (EDT) Temp. Heat Index Dew Point Humidity Pressure Visibility Wind Dir Wind Speed Gust Speed Precip Events Conditions
12:53 AM 70.0 °F - 68.0 °F 93% 30.03 in 8.0 mi Calm Calm - N/A   Mostly Cloudy
1:53 AM 70.0 °F - 68.0 °F 93% 30.02 in 7.0 mi Calm Calm - N/A   Mostly Cloudy
2:53 AM 70.0 °F - 66.9 °F 90% 30.01 in 8.0 mi Calm Calm - N/A   Mostly Cloudy
3:53 AM 70.0 °F - 68.0 °F 93% 30.00 in 8.0 mi Calm Calm - N/A   Mostly Cloudy
4:53 AM 70.0 °F - 66.9 °F 90% 29.99 in 10.0 mi Calm Calm - N/A   Mostly Cloudy
5:53 AM 70.0 °F - 68.0 °F 93% 29.99 in 7.0 mi Calm Calm - N/A   Mostly Cloudy
6:53 AM 69.1 °F - 66.9 °F 93% 29.99 in 7.0 mi Calm Calm - N/A   Mostly Cloudy
7:53 AM 68.0 °F - 66.9 °F 96% 29.99 in 5.0 mi Calm Calm - N/A   Mostly Cloudy
8:53 AM 72.0 °F - 69.1 °F 91% 30.02 in 6.0 mi North 4.6 mph - N/A   Overcast
9:53 AM 75.0 °F - 71.1 °F 87% 30.02 in 10.0 mi NW 3.5 mph - N/A   Mostly Cloudy
10:53 AM 78.1 °F - 71.1 °F 79% 30.02 in 10.0 mi NNW 5.8 mph - N/A   Mostly Cloudy
11:53 AM 82.0 °F 86.3 °F 71.1 °F 69% 30.00 in 10.0 mi Calm Calm - N/A   Mostly Cloudy
12:53 PM 82.0 °F 85.9 °F 70.0 °F 67% 29.98 in 10.0 mi West 4.6 mph - N/A   Mostly Cloudy
1:15 PM 80.6 °F 83.2 °F 68.0 °F 65% 29.97 in 10.0 mi NW 15.0 mph 20.7 mph N/A Thunderstorm Thunderstorm
1:47 PM 80.6 °F 83.9 °F 69.8 °F 70% 29.96 in 10.0 mi WNW 5.8 mph - 0.01 in   Mostly Cloudy
1:53 PM 82.0 °F 85.5 °F 69.1 °F 65% 29.95 in 10.0 mi WNW 8.1 mph - 0.01 in   Mostly Cloudy
2:53 PM 84.9 °F 88.8 °F 69.1 °F 59% 29.93 in 10.0 mi NNW 5.8 mph - N/A   Scattered Clouds
3:53 PM 84.9 °F 87.6 °F 66.9 °F 55% 29.91 in 10.0 mi Variable 3.5 mph - N/A   Mostly Cloudy
4:53 PM 82.0 °F 86.3 °F 71.1 °F 69% 29.90 in 10.0 mi SSE 12.7 mph - N/A   Mostly Cloudy
5:53 PM 81.0 °F 84.4 °F 70.0 °F 69% 29.91 in 10.0 mi South 10.4 mph - N/A   Scattered Clouds
6:53 PM 78.1 °F - 71.1 °F 79% 29.92 in 10.0 mi South 6.9 mph - N/A   Scattered Clouds
7:53 PM 75.9 °F - 71.1 °F 85% 29.94 in 10.0 mi South 4.6 mph - N/A   Scattered Clouds
8:53 PM 75.0 °F - 71.1 °F 87% 29.95 in 10.0 mi South 5.8 mph - N/A   Scattered Clouds
9:53 PM 75.0 °F - 71.1 °F 87% 29.96 in 10.0 mi Calm Calm - N/A   Partly Cloudy
10:53 PM 73.9 °F - 71.1 °F 91% 29.97 in 8.0 mi Calm Calm - N/A   Scattered Clouds
11:53 PM 73.0 °F - 71.1 °F 93% 29.96 in 8.0 mi Calm Calm - N/A   Partly Cloudy